www.pogodaiklimat.ru

Погода и климат >> Архив погоды >> Гана >> Wa


ПОГОДА в Wa

  • Прогноз погоды в Wa
  • Монитор погоды в Wa
  • Климат города

АРХИВ ПОГОДЫ в Wa

Время (UTC), дата Ветер
(напр.,м/с)
 
Видим.   Явления Облачность Т
(С)
Тd
(С)
f
(%)
Тe
(С)
Тes
(С)
Комфортность P
(гПа)
Po
(гПа)
Тmin
(С)
Tmax
(С)
R
(мм)
R24
(мм)
S
(см)
00 13.11 ЮВ 1 6000 м мгла ясно +26.5 +15.0 49 +29 +29 жарко 1010.8 1011.0
12 13.11 ЮЗ 2 6000 м мгла 3/3 480 м
[Cu med, cong]
+34.0 +19.2 42 +39 +52 опасность
солнечного
удара
1009.1 1009.0
15 13.11 Ю 1 6000 м мгла 3/3 480 м
[Cu med, cong]
+36.0 +15.5 30 +38 +46 очень
душно
1006.3 1006.0
06 14.11 6000 м мгла н/о +22.0 +14.1 61 +25 +25 комфорт 1010.6 1011.0 +21.5
09 14.11 СЗ 1 6000 м мгла ясно +28.0 +9.2 31 +28 +37 жарко 1010.8 1011.0
12 14.11 СЗ 1 6000 м мгла ясно +35.5 +6.9 17 +33 +54 опасность
солнечного
удара
1008.7 1009.0
00 15.11 Ю 37 6000 м мгла ясно +27.5 +9.7 33 +28 +28 жарко 1011.1 1011.0
03 15.11 штиль 0 6000 м мгла ясно +24.0 +14.8 56 +27 +27 жарко 1009.7 1010.0
06 15.11 штиль 0 6000 м мгла ясно +24.2 +18.3 70 +29 +29 душно 1010.5 1011.0 +23.7
09 15.11 В 1 6000 м мгла ясно +29.5 +19.5 55 +35 +44 очень
душно
1011.2 1011.0
12 15.11 ЮВ 2 6000 м мгла ясно +35.0 +8.9 20 +33 +50 жарко 1009.3 1009.0
15 15.11 СВ 1 6000 м мгла ясно +37.0 +6.8 16 +35 +45 очень
жарко
1005.9 1006.0
00 16.11 С 1 6000 м мгла ясно +25.0 +12.0 44 +27 +27 жарко 1011.6 1012.0
09 16.11 СВ 1 7000 м мгла ясно +29.5 +19.5 55 +35 +44 очень
душно
1012.1 1012.0
12 16.11 СВ 3 7000 м мгла ясно +35.5 +5.2 15 +33 +48 жарко 1009.8 1010.0
15 16.11 штиль 0 7000 м мгла ясно +37.5 +9.3 18 +36 +47 очень
жарко
1006.6 1007.0
18 16.11 штиль 0 7000 м мгла ясно +33.0 +13.3 30 +34 +34 очень
жарко
1007.1 1007.0 +37.5
21 16.11 ЮВ 1 7000 м мгла ясно +30.5 +7.9 24 +29 +29 жарко 1010.4 1010.0
03 17.11 ЮЗ 1 7000 м мгла ясно +24.5 +14.2 53 +27 +27 жарко 1010.0 1010.0
06 17.11 ЮЗ 1 7000 м мгла ясно +23.4 +17.2 68 +29 +29 душно 1010.7 1011.0 +23.0
09 17.11 ЮЗ 2 7000 м мгла ясно +27.0 +19.2 62 +32 +40 очень
душно
1012.4 1012.0
12 17.11 СВ 2 7000 м мгла ясно +35.0 +12.9 26 +35 +53 опасность
солнечного
удара
1009.3 1009.0
15 17.11 З 1 7000 м мгла ясно +37.5 +7.3 16 +35 +45 очень
жарко
1006.0 1006.0
18 17.11 штиль 0 7000 м мгла ясно +33.5 +12.9 29 +34 +34 очень
жарко
1006.9 1007.0 +37.5
21 17.11 штиль 0 7000 м мгла ясно +29.0 +15.2 43 +32 +32 душно 1010.4 1010.0
00 18.11 ЮЗ 2 7000 м мгла ясно +26.5 +21.9 76 +34 +34 очень
душно
1011.5 1012.0
06 18.11 ЮЗ 2 7000 м мгла ясно +23.0 +21.3 90 +31 +31 очень
душно
1010.9 1011.0 +22.5
15 18.11 СВ 2 14 км 4/0
[Ac trans]
+37.5 +12.0 22 +37 +44 очень
жарко
1006.9 1007.0
18 18.11 штиль 0 6000 м мгла 4/0
[Ci sp]
+32.0 +14.9 36 +34 +34 душно 1007.3 1007.0 +37.5
21 18.11 ЮВ 1 6000 м мгла 3/0
[Ci sp]
+29.5 +11.5 33 +30 +30 жарко 1009.6 1010.0
00 19.11 Ю 1 6000 м мгла ясно +27.0 +14.6 47 +30 +30 душно 1010.9 1011.0
03 19.11 ЮЗ 3 6000 м мгла ясно +26.0 +17.2 58 +30 +30 душно 1009.3 1009.0
06 19.11 ЮЗ 2 6000 м мгла ясно +23.5 +16.1 63 +27 +27 душно 1010.3 1010.0 +23.2
09 19.11 ЮЗ 2 10 км мгла ясно +29.0 +21.4 64 +37 +44 очень
душно
1011.3 1011.0

 

Местоположение метеостанции Wa (Гана): широта 10.05 долгота -2.50 высота над уровнем моря 323 м.

В архиве по умолчанию представлена погода в Wa за последнюю неделю. Архивные данные за месяц целиком и за предыдущие месяцы, начиная с января 2011 года, Вы можете получить, выбрав интересующий диапазон дат из раскрывающегося списка и нажав кнопку "Ввод!".

Внимание! Время в таблицах - всемирное. Для получения местного времени необходимо прибавить поправку, которая в Wa равна 1 ч.

Смотрите также архив погоды в соседних городах и на ближайших метеорологических станциях:

Погода в Gaoua (Буркина-Фасо) (81 км)
Погода в Bole (Гана) (113 км)
Погода в Navrongo (Гана) (180 км)
Погода в Tamale (Гана) (191 км)
Погода в Po (Буркина-Фасо) (192 км)
Погода в Boromo (Буркина-Фасо) (195 км)
Погода в Bondoukou (Кот-д'Ивуар) (225 км)
Погода в Bobo-Dioulasso (Буркина-Фасо) (235 км)
Погода в Wenchi (Гана) (260 км)
Погода в Ouagadougou (Буркина-Фасо) (277 км)

Пояснения к столбцам:

Ветер - указаны скорость ветра в м/с - средняя за 10 мин, порывы в срок и между сроками (в фигурных скобках) и направление, откуда дует ветер: С - северный, СВ - северо-восточный, В - восточный, ЮВ - юго-восточный, Ю - южный, ЮЗ - юго-западный, З - западный, СЗ - северо-западный.
Видимость - горизонтальная дальность видимости в метрах или километрах. При видимости от 1 до 10 км при отсутствии осадков обычно наблюдается дымка, при ухудшении видимости до 1 км и менее - туман. В сухую погоду видимость может ухудшаться дымом, пылью или мглою.
Явления - указаны атмосферные явления, наблюдавшиеся в срок или в последний час перед сроком; фигурными скобками обозначены явления, наблюдавшиеся между сроками (за 1-3 часа до срока); квадратными скобками обозначены град или гололедные отложения с указанием их диаметра в мм.
Облачность - указаны через наклонную черту общая и нижняя облачность в баллах и высота нижней границы облаков в метрах; квадратными скобками обозначены формы облаков: Ci - перистые, Cs - перисто-слоистые, Cc - перисто-кучевые, Ac - высококучевые, As - высокослоистые, Sc - слоисто-кучевые, Ns - слоисто-дождевые, Cu - кучевые, Cb - кучево-дождевые. Подробнее классификацию облаков см. в Атласе облаков (PDF).
T - Температура воздуха - температура, измеренная на высоте 2 м над землей.
Td - Температура точки росы - температура, при понижении до которой содержащийся в воздухе водяной пар достигнет насыщения.
f - Относительная влажность воздуха - влажноcть воздуха, измеренная на высоте 2 м над землей.
Te - Эффективная температура - температура, которую ощущает одетый по сезону человек в тени. Характеристика душности погоды. При расчете учитывается влияние влажности воздуха и скорости ветра на теплоощущения человека.
Tes - Эффективная температура на солнце - температура, которую ощущает человек, с поправкой на солнечный нагрев. Характеристика знойности погоды. Зависит от высоты солнца над горизонтом, облачности и скорости ветра. Ночью, в пасмурную погоду, а также при ветре 12 м/с и более поправка равна нулю.
P - Атмосферное давление - приведенное к уровню моря атмосферное давление.
Po - Атмосферное давление - измеренное на уровне метеостанции атмосферное давление.
Tmin - Минимальная температура - минимум температуры воздуха на высоте 2 м над землей.
Tmax - Максимальная температура - максимум температуры воздуха на высоте 2 м над землей.
R - Количество осадков - Количество выпавших осадков за период времени, мм. При наведении курсора мыши на число - период времени, за который выпало указанное количество осадков.
R24 - Количество осадков - Количество выпавших осадков за 24 часа, мм.
S - Снежный покров - Высота снежного покрова, см. При наведении курсора мыши на число - состояние снежного покрова и степень покрытия местности в баллах.